This is the latest recevied weather packets stored in our database for station/object KC4GS-13. If no packets are shown the sender has not sent any weather packets the latest 10 day(s).
| Time | Temp. | Humidity | Pressure | Rain* | Wind** | Luminosity | Snow |
|---|---|---|---|---|---|---|---|
| 1777395261 | 15° C | 98% | 1022.5 hPa | 0 mm | - | 248 W/m² | - |
| 1777394959 | 15° C | 98% | 1022.9 hPa | 0 mm | - | 282 W/m² | - |
| 1777394655 | 14.44° C | 98% | 1023.3 hPa | 0 mm | - | 227 W/m² | - |
| 1777394352 | 14.44° C | 98% | 1023.4 hPa | 0 mm | - | 187 W/m² | - |
| 1777394048 | 14.44° C | 98% | 1023.8 hPa | 0 mm | - | 182 W/m² | - |
| 1777393743 | 13.89° C | 98% | 1024 hPa | 1.78 mm | - | 154 W/m² | - |
| 1777393438 | 13.89° C | 98% | 1024.3 hPa | 1.78 mm | - | 97 W/m² | - |
| 1777393134 | 13.89° C | 97% | 1024.8 hPa | 0 mm | - | 60 W/m² | - |
| 1777392830 | 13.89° C | 97% | 1025.1 hPa | 0 mm | - | 54 W/m² | - |
| 1777392526 | 13.89° C | 97% | 1025.1 hPa | 0 mm | - | 85 W/m² | - |
| 1777392222 | 13.89° C | 97% | 1025.4 hPa | 0 mm | - | 126 W/m² | - |
| 1777391918 | 13.33° C | 97% | 1025.7 hPa | 1.78 mm | - | 126 W/m² | - |
| 1777391612 | 13.33° C | 97% | 1025.9 hPa | 3.05 mm | - | 108 W/m² | - |
| 1777391309 | 13.33° C | 97% | 1025.9 hPa | 1.27 mm | - | 82 W/m² | - |
| 1777391006 | 13.33° C | 97% | 1025.7 hPa | 0 mm | - | 41 W/m² | - |
| 1777390702 | 13.33° C | 97% | 1025.7 hPa | 1.78 mm | - | 38 W/m² | - |
| 1777390399 | 13.33° C | 97% | 1025.1 hPa | 1.78 mm | - | 35 W/m² | - |
| 1777390095 | 13.33° C | 97% | 1025.8 hPa | 1.27 mm | - | 38 W/m² | - |
| 1777389792 | 13.33° C | 97% | 1026.6 hPa | 1.27 mm | - | 33 W/m² | - |
| 1777389489 | 13.33° C | 97% | 1026.9 hPa | 3.05 mm | - | 34 W/m² | - |
| 1777389185 | 12.78° C | 96% | 1027.3 hPa | 4.83 mm | - | 25 W/m² | - |
| 1777388884 | 12.78° C | 96% | 1026.8 hPa | 4.83 mm | - | 27 W/m² | - |
| 1777388580 | 12.78° C | 96% | 1026.7 hPa | 6.1 mm | - | 19 W/m² | - |
| 1777388276 | 12.78° C | 96% | 1026.1 hPa | 3.05 mm | - | 16 W/m² | - |
| 1777387970 | 12.78° C | 96% | 1026.4 hPa | 3.05 mm | - | 7 W/m² | - |
* Rain latest hour (hover to see other rain measurements)
** Current wind speed in m/s (hover to see current wind gust speed)